COMSATBW-2

Last updated on Thu Nov 21 2024 00:02:41 GMT+0000 (Coordinated Universal Time)

1 36582U 10021B 24325.29775462 .00000089 00000+0 00000+0 0 9991 2 36582 0.0540 99.8328 0001730 142.3024 298.0325 1.00270512 53208
UTC large
Height (km)
Speed (km/s)
/
Latitude / Longitude
Inclination (degrees)
Orbital Period (minutes)
Azimuth
Elevation
Range (km)
Doppler Factor

Next 0 passes for location: London (51.5072 / 0.1276)

Sorry there are no passes over London.